DW7002 Weather Reports


Display with metric or nautical units.
time (UTC)temp
F
wind
direction
speed
MPH
gust
MPH
rain 1hr
in
rain 24hr
in
rain mn
in
humidity
%
barometer
mb
20260510104118 57 259 0.0 0.0 0.00 0.00 0.00 93 1015.5
20260510103116 57 262 0.0 0.0 0.00 0.00 0.00 94 1015.3
20260510102130 57 262 0.0 0.0 0.00 0.00 0.00 94 1015.1
20260510101122 57 262 0.0 0.0 0.00 0.00 0.00 94 1015.0
20260510100115 57 204 0.0 0.0 0.00 0.00 0.00 94 1014.8
20260510095130 57 204 0.0 0.0 0.00 0.00 0.00 93 1014.8
20260510094123 57 204 0.0 0.0 0.00 0.00 0.00 93 1014.7
20260510093115 57 204 0.0 0.0 0.00 0.00 0.00 94 1014.6
20260510092129 57 204 0.0 0.0 0.00 0.00 0.00 93 1014.6
20260510091125 57 204 0.0 0.0 0.00 0.00 0.00 93 1014.5
20260510090117 58 204 0.0 0.0 0.00 0.00 0.00 93 1014.4
20260510085148 58 204 0.0 0.0 0.00 0.00 0.00 93 1014.3
20260510084124 58 204 0.0 0.0 0.00 0.00 0.00 92 1014.3
20260510083117 59 204 0.0 0.0 0.00 0.00 0.00 93 1014.3
20260510082130 59 204 0.0 0.0 0.00 0.00 0.00 93 1014.2
20260510081124 59 204 0.0 0.0 0.00 0.00 0.00 93 1014.0
20260510080119 59 204 0.0 0.0 0.00 0.00 0.00 93 1014.0
20260510075130 59 204 0.0 0.0 0.00 0.00 0.00 93 1013.9
20260510074122 59 204 0.0 0.0 0.00 0.00 0.00 93 1013.9
20260510073120 60 204 0.0 0.0 0.00 0.00 0.00 93 1014.0
20260510072133 60 204 0.0 1.0 0.00 0.00 0.00 93 1014.0
20260510071125 60 204 0.0 2.0 0.00 0.00 0.00 93 1013.9
20260510070132 60 204 1.0 2.0 0.00 0.00 0.00 94 1013.8
20260510065127 59 202 0.0 1.0 0.00 0.00 0.00 93 1013.8
20260510064120 60 202 0.0 0.0 0.00 0.00 0.00 93 1013.8
20260510063154 60 202 0.0 0.0 0.00 0.00 0.00 93 1013.9
20260510062127 60 202 0.0 0.0 0.00 0.00 0.00 93 1013.9
20260510061124 60 202 0.0 0.0 0.00 0.00 0.00 92 1013.8
20260510060116 60 202 0.0 0.0 0.00 0.00 0.00 93 1013.8
20260510055148 60 202 0.0 0.0 0.00 0.00 0.00 92 1013.9
20260510054119 60 202 0.0 0.0 0.00 0.00 0.00 92 1013.9
20260510053115 60 202 0.0 0.0 0.00 0.00 0.00 93 1014.1
20260510052128 60 202 0.0 0.0 0.00 0.00 0.00 92 1014.1
20260510051120 60 202 0.0 0.0 0.00 0.00 0.00 92 1014.1
20260510050116 60 202 0.0 0.0 0.00 0.00 0.00 92 1014.3
20260510045126 61 202 0.0 1.0 0.00 0.00 0.00 93 1014.3
20260510044120 61 202 0.0 0.0 0.00 0.00 0.00 93 1014.4
20260510043132 60 202 0.0 0.0 0.00 0.00 0.00 92 1014.2
20260510042128 60 202 0.0 1.0 0.00 0.00 0.00 92 1014.4
20260510041140 61 202 1.0 2.0 0.00 0.00 0.00 92 1014.4
20260510040131 61 202 0.0 0.0 0.00 0.00 0.00 91 1014.3
20260510035120 61 202 0.0 2.0 0.00 0.00 0.00 91 1014.4
20260510034118 61 202 0.0 2.0 0.00 0.00 0.00 91 1014.3
20260510033150 61 202 0.0 0.0 0.00 0.00 0.00 91 1014.3
20260510032121 61 202 0.0 0.0 0.00 0.00 0.00 91 1014.3
20260510031115 62 202 0.0 0.0 0.00 0.00 0.00 90 1014.3
20260510030127 62 202 0.0 0.0 0.00 0.00 0.00 90 1014.2
20260510025117 62 202 0.0 0.0 0.00 0.00 0.00 90 1014.2
20260510024129 62 202 0.0 0.0 0.00 0.00 0.00 89 1014.2
20260510023126 62 202 0.0 0.0 0.00 0.00 0.00 89 1014.0
20260510022118 63 202 0.0 0.0 0.00 0.00 0.00 89 1013.9
20260510021151 63 202 0.0 0.0 0.00 0.00 0.00 89 1013.9
20260510020144 63 202 0.0 0.0 0.00 0.00 0.00 88 1013.9
20260510015117 63 202 0.0 0.0 0.00 0.00 0.00 88 1013.7
20260510014149 64 202 0.0 0.0 0.00 0.00 0.00 88 1013.7
20260510013121 64 202 0.0 0.0 0.00 0.00 0.00 87 1013.5
20260510012134 64 202 0.0 0.0 0.00 0.00 0.00 86 1013.3
20260510011130 65 202 0.0 0.0 0.00 0.00 0.00 85 1013.0
20260510010121 65 202 0.0 0.0 0.00 0.00 0.00 85 1012.9
20260510005152 66 202 0.0 0.0 0.00 0.00 0.00 84 1012.6
20260510004126 66 202 0.0 0.0 0.00 0.00 0.00 83 1012.4
20260510003121 67 202 0.0 0.0 0.00 0.00 0.00 82 1012.5
20260510002135 68 202 0.0 0.0 0.00 0.00 0.00 82 1012.4
20260510001126 68 202 0.0 1.0 0.00 0.00 0.00 80 1012.3
20260510000123 68 280 0.0 1.0 0.00 0.00 0.00 80 1012.2
20260509235134 69 284 0.0 2.0 0.00 0.00 0.00 79 1012.3
20260509234126 69 284 1.0 2.0 0.00 0.00 0.00 78 1012.3
20260509233120 70 284 1.0 2.0 0.00 0.00 0.00 78 1012.2
20260509232117 70 284 0.0 1.0 0.00 0.00 0.00 78 1011.8
20260509231130 70 11 0.0 2.0 0.00 0.00 0.00 77 1011.9
20260509230122 71 277 1.0 2.0 0.00 0.00 0.00 77 1011.9
20260509225117 71 290 0.0 4.0 0.00 0.00 0.00 77 1011.7
20260509224132 71 184 0.0 2.0 0.00 0.00 0.00 77 1011.6
20260509223124 72 157 1.0 3.0 0.00 0.00 0.00 75 1011.6
20260509222117 72 266 1.0 4.0 0.00 0.00 0.00 75 1011.6
20260509221135 72 340 1.0 4.0 0.00 0.00 0.00 75 1011.7
20260509220127 72 168 1.0 4.0 0.00 0.00 0.00 74 1011.7
20260509215137 72 254 1.0 5.0 0.00 0.00 0.00 74 1011.5
20260509214148 71 265 0.0 4.0 0.00 0.00 0.00 74 1011.6
20260509213125 71 161 1.0 5.0 0.00 0.00 0.00 75 1011.6
20260509212118 71 95 2.0 6.0 0.00 0.00 0.00 75 1011.6
20260509211131 71 300 2.0 5.0 0.00 0.00 0.00 75 1011.6
20260509210123 71 257 1.0 5.0 0.00 0.00 0.00 75 1011.5
20260509205117 71 250 1.0 5.0 0.00 0.00 0.00 74 1011.3
20260509204150 71 268 1.0 5.0 0.00 0.00 0.00 73 1011.4
20260509203141 71 278 1.0 6.0 0.00 0.00 0.00 74 1011.5
20260509202132 71 298 3.0 6.0 0.00 0.00 0.00 75 1011.5
20260509201128 70 249 1.0 4.0 0.00 0.00 0.00 76 1011.6
20260509200120 70 171 2.0 5.0 0.00 0.00 0.00 75 1011.7
20260509195150 70 128 1.0 6.0 0.00 0.00 0.00 76 1011.8
20260509194124 70 284 1.0 5.0 0.00 0.00 0.00 77 1012.0
20260509193121 69 274 3.0 5.0 0.00 0.00 0.00 78 1012.0
20260509192134 68 304 0.0 2.0 0.00 0.00 0.00 79 1012.1
20260509191146 68 269 1.0 2.0 0.00 0.00 0.00 79 1012.1
20260509190122 68 266 1.0 5.0 0.00 0.00 0.00 79 1012.2
20260509185131 68 355 2.0 5.0 0.00 0.00 0.00 79 1012.1
20260509184124 68 287 1.0 4.0 0.00 0.00 0.00 79 1012.1
20260509183117 68 274 1.0 5.0 0.00 0.00 0.00 77 1012.4
20260509182134 68 268 3.0 8.0 0.00 0.00 0.00 76 1012.4
20260509181148 69 246 2.0 7.0 0.00 0.00 0.00 76 1012.6
20260509180118 69 253 2.0 6.0 0.00 0.00 0.00 76 1012.5
20260509175130 69 57 1.0 6.0 0.00 0.00 0.00 76 1012.6
20260509174127 70 256 3.0 6.0 0.00 0.00 0.00 74 1012.7
20260509173120 70 276 3.0 5.0 0.00 0.00 0.00 75 1012.8
20260509172152 70 284 2.0 6.0 0.00 0.00 0.00 75 1012.9
20260509171125 69 172 2.0 6.0 0.00 0.00 0.00 77 1012.9
20260509170119 68 148 2.0 8.0 0.00 0.00 0.00 78 1013.1
20260509165130 68 256 2.0 6.0 0.00 0.00 0.00 78 1013.4
20260509164123 69 291 1.0 7.0 0.00 0.00 0.00 77 1013.5
20260509163118 69 248 2.0 6.0 0.00 0.00 0.00 76 1013.5
20260509162133 69 281 2.0 6.0 0.00 0.00 0.00 76 1013.6
20260509161126 69 65 3.0 6.0 0.00 0.00 0.00 75 1013.7
20260509160115 69 271 2.0 6.0 0.00 0.00 0.00 75 1013.5
20260509155129 69 236 3.0 5.0 0.00 0.00 0.00 74 1013.4
20260509154122 67 162 2.0 7.0 0.00 0.00 0.00 74 1013.5
20260509153134 67 286 1.0 6.0 0.00 0.00 0.00 73 1013.7
20260509152130 67 205 1.0 6.0 0.00 0.00 0.00 73 1013.8
20260509151123 67 128 2.0 6.0 0.00 0.00 0.00 74 1013.7
20260509150114 67 296 2.0 5.0 0.00 0.00 0.00 72 1013.6
20260509145124 67 199 2.0 6.0 0.00 0.00 0.00 72 1013.7
20260509144121 66 171 2.0 7.0 0.00 0.00 0.00 74 1013.7
20260509143134 65 123 2.0 4.0 0.00 0.00 0.00 74 1014.0
20260509142147 64 100 3.0 6.0 0.00 0.00 0.00 75 1014.0
20260509141139 64 281 2.0 6.0 0.00 0.00 0.00 76 1014.3
20260509140134 62 109 1.0 6.0 0.00 0.00 0.00 78 1014.2
20260509135125 61 227 1.0 3.0 0.00 0.00 0.00 79 1014.5
20260509134118 61 123 0.0 4.0 0.00 0.00 0.00 81 1014.8
20260509133131 61 294 1.0 4.0 0.00 0.00 0.00 82 1015.0
20260509132147 60 267 1.0 2.0 0.00 0.00 0.00 83 1015.1
20260509131118 59 168 0.0 2.0 0.00 0.00 0.00 85 1015.1
20260509130129 58 22 0.0 2.0 0.00 0.00 0.00 87 1015.0
20260509125124 58 188 1.0 4.0 0.00 0.00 0.00 89 1015.2
20260509124138 56 254 0.0 0.0 0.00 0.00 0.00 91 1015.2
20260509123131 55 121 0.0 0.0 0.00 0.00 0.00 92 1014.8
20260509122123 54 121 0.0 0.0 0.00 0.00 0.00 93 1014.9
20260509121119 53 128 0.0 0.0 0.00 0.00 0.00 93 1014.9
20260509120130 52 125 0.0 0.0 0.00 0.00 0.00 93 1014.8
20260509115119 52 160 0.0 1.0 0.00 0.00 0.00 93 1014.5
20260509114132 51 155 0.0 0.0 0.00 0.00 0.00 93 1014.6
20260509113129 51 122 0.0 0.0 0.00 0.00 0.00 93 1014.7
20260509112122 51 122 0.0 0.0 0.00 0.00 0.00 93 1014.8
20260509111115 50 122 0.0 0.0 0.00 0.00 0.00 93 1014.8
20260509110147 50 120 0.0 0.0 0.00 0.00 0.00 93 1014.5
20260509105120 50 128 0.0 0.0 0.00 0.00 0.00 92 1014.5